Wind_Speed
7 7 8 9 9 10 10 10 11 12 12 12 14 15 17 18 17 17 17 17 17 19 19 19 18 18 18 19 18 18 19 19 19 19 19 19 18 18 18 18 18 19 20 20
8 9 9 9 9 10 10 11 12 12 12 12 13 14 16 17 17 17 17 17 18 18 18 17 17 18 19 20 19 20 20 19 18 18 18 18 18 19 20 19 19 20 20 20
8 10 9 10 10 10 11 11 12 12 12 13 13 13 14 15 15 16 16 17 17 18 18 19 18 19 20 19 19 19 18 18 18 18 19 20 20 20 20 20 20 20 20 20
9 9 9 9 10 9 10 11 12 13 12 12 12 12 14 14 15 15 15 16 17 18 18 18 19 19 19 19 18 18 18 18 19 19 20 20 20 21 20 20 20 20 20 20
9 8 8 9 9 9 10 11 11 11 11 12 12 12 13 13 13 13 13 14 15 16 16 17 18 19 19 18 18 18 18 18 19 19 19 20 20 20 20 20 19 20 20 19
8 8 8 8 8 9 9 10 10 10 10 11 11 11 12 12 12 12 12 12 13 14 15 16 17 17 18 18 18 18 18 18 18 18 19 19 19 18 19 19 18 19 19 18
8 8 7 8 8 8 8 8 8 8 9 9 10 11 11 12 12 12 12 13 13 14 14 15 16 16 17 18 18 18 18 17 17 18 18 18 17 17 17 17 18 19 19 18
8 8 8 8 8 8 7 7 7 7 8 7 9 10 10 11 12 11 12 12 13 14 15 15 15 15 16 16 16 16 16 16 16 16 16 16 16 16 17 17 17 17 17 18
7 8 7 7 7 6 6 5 5 5 6 6 8 8 9 9 10 10 11 12 12 13 14 14 14 14 14 14 13 13 13 14 14 15 14 15 15 16 17 16 16 16 17 16
6 6 6 5 6 5 5 4 3 3 4 5 5 7 8 9 9 9 10 11 12 12 12 12 12 13 13 13 12 12 12 12 13 13 13 13 14 15 14 15 14 15 16 16
5 5 5 5 5 5 4 3 3 3 4 4 6 8 8 8 9 10 10 11 12 12 12 12 12 12 13 13 12 12 12 12 12 12 11 11 12 11 11 12 13 13 13 13
4 4 4 4 4 4 4 3 3 4 5 5 7 8 8 8 9 10 10 11 11 12 12 12 13 13 12 12 13 13 12 12 12 11 11 10 10 10 10 10 10 11 12 13
5 5 4 5 5 4 4 4 4 4 5 5 7 8 8 7 8 9 10 11 11 11 12 13 13 12 12 11 11 11 10 10 10 10 9 9 9 8 8 9 9 10 10 10
5 5 5 5 5 5 5 5 5 5 6 6 6 7 7 6 6 7 8 9 10 10 11 13 13 11 11 10 9 9 9 9 8 8 8 7 7 7 7 7 7 7 8 9
6 6 6 6 5 5 5 6 6 6 6 5 6 7 7 6 6 7 9 10 10 11 11 12 11 11 10 9 9 8 8 7 7 6 6 6 6 6 6 5 6 7 8 9
5 6 6 5 5 5 5 6 6 6 5 5 6 7 7 7 7 8 9 10 10 11 12 12 11 11 10 8 8 8 7 6 6 6 6 6 5 4 4 5 6 7 8 9
5 5 5 5 5 6 6 6 5 5 4 4 5 5 7 7 7 7 9 9 10 11 11 11 10 10 9 8 7 6 6 5 5 5 5 5 4 4 5 5 6 8 8 9
5 5 5 5 5 5 5 5 5 5 5 5 5 5 7 7 7 8 9 9 10 11 10 10 9 9 9 7 7 5 5 5 4 4 4 5 4 5 6 7 8 8 8 9
5 5 5 4 5 5 5 5 5 5 6 5 5 6 7 7 8 8 9 9 10 10 10 9 9 8 8 7 7 6 6 5 5 5 5 5 5 5 6 7 8 8 7 8
5 5 5 5 5 5 6 6 6 6 6 5 6 6 7 7 8 9 9 9 10 9 9 9 8 8 7 7 7 6 6 5 5 5 5 5 5 6 7 8 8 7 7 8
6 6 6 6 6 6 6 6 6 6 6 5 6 7 8 8 8 9 9 9 9 9 8 8 7 7 7 7 6 6 6 5 4 5 5 5 5 6 7 7 7 7 8 9
8 8 7 7 7 7 7 7 7 7 7 7 7 8 8 8 8 9 9 9 9 8 7 7 7 6 6 6 6 6 6 6 6 6 6 6 6 7 7 8 7 8 8 10
9 9 9 8 8 8 8 7 7 7 7 7 7 7 8 8 8 8 8 9 9 8 7 7 7 6 6 6 6 6 6 6 6 6 6 6 7 7 8 8 8 8 9 10
10 10 10 9 8 9 8 7 7 7 7 7 7 7 7 7 7 7 8 8 9 8 7 7 7 7 6 6 6 6 6 6 7 7 7 7 7 8 8 8 9 9 10 11
11 10 10 10 10 10 9 8 8 8 8 8 7 7 7 8 8 8 8 8 9 9 8 7 6 6 6 6 6 6 6 6 7 7 7 8 8 9 10 10 11 11 12 12
12 11 11 11 10 10 10 10 10 10 9 9 9 9 8 8 9 9 8 8 8 8 7 7 6 6 6 6 6 6 6 7 8 8 8 9 9 9 10 11 12 12 13 13
Wind_Direction
293 284 276 270 267 266 269 272 271 272 275 272 275 272 268 268 268 265 266 271 275 273 274 275 273 271 273 274 273 272 272 273 274 274 273 271 268 267 266 267 269 270 267 268
293 286 280 276 272 270 272 272 271 270 275 276 274 274 273 271 266 264 265 268 274 276 276 275 272 272 274 274 275 276 276 275 278 276 272 270 270 268 265 265 267 267 269 270
290 286 284 277 275 276 272 269 268 272 274 273 276 280 279 277 274 271 267 270 274 275 279 280 273 275 277 275 275 277 279 281 280 276 274 273 271 271 269 267 269 270 270 274
293 289 284 279 276 274 274 270 270 275 278 279 280 281 282 281 280 278 276 276 278 276 278 281 279 278 278 278 277 280 280 282 281 277 275 274 275 273 270 268 267 269 270 272
297 290 284 281 277 272 273 273 275 275 273 274 276 276 280 282 283 287 287 284 280 278 280 282 280 280 281 282 281 282 283 284 282 279 277 275 275 275 272 269 268 269 269 271
302 296 292 291 289 282 280 279 280 281 281 275 276 273 275 279 285 289 291 290 285 283 284 286 284 284 285 283 283 285 286 287 285 281 278 277 277 275 272 269 269 269 270 272
307 302 299 296 297 294 287 284 287 283 277 272 273 269 272 278 281 285 288 291 292 289 289 292 290 288 286 285 284 286 286 285 287 287 282 279 275 274 273 270 273 271 269 270
305 299 298 296 296 297 294 289 275 268 273 282 275 272 273 278 282 286 290 292 295 295 294 296 295 294 290 287 285 286 287 287 288 288 283 278 278 275 273 273 275 273 266 267
307 299 299 300 304 307 301 297 290 287 292 286 275 275 281 288 290 294 294 294 299 298 299 298 297 295 293 290 289 289 291 291 292 289 284 280 279 278 272 272 272 272 269 268
319 312 307 314 317 326 320 301 297 294 284 287 284 282 288 301 299 305 306 304 304 305 307 309 303 299 297 295 294 294 295 297 297 293 290 289 281 281 275 269 268 269 269 272
326 328 328 334 329 331 338 322 315 313 301 299 293 288 289 298 305 308 311 312 314 311 310 311 307 304 300 297 296 297 296 297 301 299 295 292 290 283 276 271 270 270 273 273
343 339 337 343 341 343 343 343 338 331 310 300 298 294 293 297 305 310 310 312 314 317 315 313 308 305 304 301 298 297 296 296 299 300 298 291 288 281 276 273 274 277 277 275
348 350 340 335 342 347 348 346 345 335 324 315 312 300 299 300 309 319 320 318 317 320 321 322 319 312 313 310 304 301 300 297 295 296 295 294 286 282 281 285 289 285 282 280
350 348 342 333 332 328 328 339 340 340 339 330 330 317 319 318 319 325 329 328 327 327 329 330 332 325 319 315 313 311 307 305 304 304 305 301 289 283 289 295 294 294 294 292
347 348 345 339 332 326 329 340 342 344 343 337 332 336 334 332 334 332 331 331 329 330 332 336 338 339 332 324 320 315 309 311 316 316 315 316 303 296 291 293 299 303 301 301
347 345 343 338 338 337 338 337 338 343 344 338 335 335 336 330 333 338 341 337 332 332 333 333 337 341 340 334 327 326 325 326 326 323 320 320 311 303 301 301 307 308 304 302
343 342 343 342 339 337 341 345 345 348 352 350 350 344 336 333 332 338 339 338 336 335 335 338 339 342 343 343 342 340 342 339 336 334 332 330 323 318 313 310 311 312 311 309
333 335 335 338 333 340 336 337 339 339 336 342 353 350 341 338 338 340 338 335 334 335 337 339 346 352 351 353 355 355 355 351 348 349 350 352 341 328 320 316 315 316 314 317
322 324 325 327 333 332 330 330 331 333 334 337 341 342 345 344 340 343 342 340 337 334 336 339 344 352 358 1 8 10 5 3 3 0 356 348 340 333 329 327 323 320 318 320
302 310 321 321 322 327 330 331 325 321 322 327 330 329 337 340 344 346 348 345 343 341 341 345 352 359 3 5 9 10 6 9 10 7 357 347 345 346 341 335 329 324 325 328
293 296 304 309 310 317 324 323 316 312 317 310 319 323 330 336 338 342 346 345 345 343 344 348 348 353 359 3 5 8 6 5 2 358 353 352 348 346 345 343 338 336 334 333
284 285 291 297 299 306 315 318 314 314 312 309 316 322 328 330 332 335 339 342 344 344 344 346 346 349 356 359 360 0 359 360 359 349 345 347 346 347 348 350 347 342 337 338
280 282 287 291 293 297 310 315 311 308 308 307 315 320 323 324 329 334 335 338 341 344 348 349 348 348 351 353 353 354 360 357 356 353 350 348 348 348 348 349 349 345 344 345
281 283 286 286 287 289 299 305 306 306 306 305 312 316 316 323 329 331 331 334 339 343 341 342 338 338 342 346 348 350 351 349 347 348 349 348 348 349 349 350 351 348 345 342
281 283 285 285 283 283 289 293 298 300 300 298 301 307 307 312 317 317 322 326 329 336 337 339 344 344 344 345 344 343 342 344 346 347 349 349 350 351 351 349 346 343 341 339
276 279 282 282 280 283 284 287 289 291 292 291 293 297 297 303 309 308 313 318 323 328 330 331 339 346 350 350 347 346 344 348 349 348 347 349 349 347 345 344 345 343 339 336
Height
5837 5838 5837 5838 5838 5839 5839 5839 5839 5838 5837 5837 5837 5837 5836 5835 5834 5835 5835 5835 5834 5833 5832 5831 5830 5829 5828 5827 5826 5826 5825 5824 5824 5823 5822 5821 5821 5821 5821 5821 5821 5821 5821 5820
5835 5835 5835 5834 5834 5835 5835 5836 5835 5835 5834 5834 5834 5833 5832 5831 5831 5831 5831 5831 5830 5829 5828 5827 5826 5825 5824 5823 5822 5821 5820 5820 5819 5818 5817 5817 5817 5817 5817 5816 5816 5816 5816 5816
5834 5833 5832 5832 5831 5832 5832 5832 5832 5831 5831 5830 5831 5830 5829 5828 5828 5827 5827 5827 5826 5825 5825 5823 5822 5821 5820 5819 5818 5817 5816 5815 5814 5814 5813 5813 5812 5812 5812 5812 5812 5812 5812 5811
5830 5830 5829 5829 5828 5829 5829 5828 5828 5828 5828 5828 5828 5829 5826 5825 5824 5824 5823 5823 5822 5821 5820 5819 5818 5817 5816 5815 5813 5813 5812 5810 5809 5808 5808 5807 5807 5807 5807 5806 5807 5807 5807 5807
5828 5827 5826 5826 5826 5825 5825 5824 5824 5824 5825 5826 5825 5826 5824 5822 5821 5821 5820 5819 5818 5817 5817 5815 5814 5813 5812 5810 5809 5808 5807 5806 5804 5803 5803 5802 5802 5802 5801 5801 5802 5802 5802 5802
5825 5824 5824 5823 5822 5821 5820 5821 5820 5821 5821 5822 5822 5823 5822 5820 5819 5818 5817 5816 5815 5814 5813 5811 5810 5809 5807 5806 5805 5804 5802 5801 5800 5799 5798 5797 5797 5796 5796 5796 5797 5796 5797 5797
5823 5822 5821 5820 5819 5818 5818 5818 5819 5819 5819 5820 5819 5818 5819 5816 5815 5815 5814 5813 5812 5810 5809 5808 5806 5804 5803 5802 5800 5799 5798 5797 5795 5794 5793 5792 5792 5791 5791 5791 5791 5791 5792 5792
5821 5821 5819 5818 5817 5816 5815 5816 5817 5818 5817 5817 5815 5815 5815 5813 5812 5811 5810 5809 5808 5807 5805 5804 5802 5801 5799 5797 5796 5795 5793 5792 5791 5790 5788 5788 5787 5786 5786 5786 5786 5786 5786 5787
5819 5819 5817 5816 5815 5814 5813 5813 5814 5815 5814 5814 5813 5812 5811 5810 5809 5808 5807 5806 5805 5803 5802 5800 5798 5797 5795 5794 5792 5791 5789 5788 5787 5786 5784 5783 5782 5781 5781 5781 5781 5781 5781 5782
5817 5817 5815 5814 5813 5813 5812 5812 5812 5812 5812 5812 5812 5811 5810 5808 5807 5806 5805 5803 5802 5800 5799 5797 5795 5793 5792 5790 5789 5787 5786 5785 5783 5781 5780 5779 5778 5777 5776 5776 5777 5777 5777 5777
5816 5815 5815 5814 5812 5812 5811 5811 5811 5811 5811 5811 5810 5812 5808 5807 5806 5804 5803 5801 5800 5797 5796 5794 5792 5790 5788 5787 5785 5784 5782 5781 5779 5778 5776 5775 5774 5773 5773 5773 5773 5773 5774 5774
5815 5815 5814 5814 5812 5811 5811 5810 5810 5810 5809 5808 5808 5810 5805 5805 5803 5802 5801 5799 5797 5795 5793 5790 5788 5787 5785 5783 5782 5780 5779 5778 5776 5774 5773 5772 5771 5770 5770 5770 5770 5770 5770 5771
5814 5814 5814 5813 5814 5812 5810 5809 5809 5808 5808 5807 5807 5808 5803 5802 5801 5800 5798 5797 5795 5793 5790 5788 5786 5784 5782 5780 5779 5777 5776 5774 5773 5771 5770 5769 5769 5768 5768 5768 5768 5768 5768 5768
5814 5813 5814 5814 5812 5811 5810 5808 5808 5808 5807 5806 5805 5804 5802 5800 5799 5798 5797 5795 5793 5791 5789 5786 5784 5782 5780 5778 5776 5775 5773 5772 5770 5769 5768 5767 5767 5767 5766 5766 5766 5766 5765 5765
5814 5813 5812 5812 5811 5810 5809 5808 5807 5806 5805 5805 5803 5802 5801 5799 5798 5797 5795 5794 5792 5789 5787 5785 5783 5780 5778 5776 5775 5773 5772 5770 5769 5768 5767 5766 5765 5765 5765 5765 5765 5764 5763 5763
5813 5813 5812 5811 5810 5809 5808 5807 5806 5805 5804 5803 5803 5802 5800 5798 5797 5796 5794 5792 5790 5788 5786 5784 5781 5779 5777 5775 5773 5771 5770 5769 5768 5767 5766 5765 5764 5764 5764 5764 5763 5762 5761 5760
5813 5812 5811 5810 5809 5808 5808 5807 5806 5805 5804 5803 5802 5801 5799 5798 5796 5795 5793 5791 5789 5787 5785 5783 5780 5778 5776 5774 5772 5771 5769 5768 5767 5766 5765 5764 5764 5763 5763 5762 5762 5761 5759 5758
5812 5811 5810 5809 5809 5808 5809 5806 5805 5804 5803 5802 5801 5800 5798 5797 5795 5794 5792 5790 5788 5786 5784 5782 5779 5777 5775 5773 5771 5770 5769 5768 5767 5766 5765 5764 5764 5763 5762 5761 5760 5759 5757 5755
5810 5810 5809 5809 5808 5807 5807 5805 5804 5803 5802 5801 5800 5799 5798 5796 5795 5793 5791 5789 5787 5785 5783 5781 5779 5777 5775 5773 5772 5771 5770 5769 5767 5766 5765 5765 5764 5763 5762 5760 5758 5757 5755 5754
5809 5809 5809 5807 5807 5806 5806 5804 5803 5803 5801 5800 5799 5798 5797 5796 5795 5793 5791 5788 5786 5784 5782 5780 5778 5777 5775 5774 5772 5771 5770 5769 5768 5767 5766 5765 5763 5762 5761 5759 5757 5755 5754 5752
5808 5807 5807 5806 5805 5805 5804 5803 5802 5803 5802 5799 5798 5797 5796 5795 5794 5792 5790 5788 5785 5783 5782 5780 5778 5777 5776 5774 5773 5772 5770 5769 5768 5767 5766 5765 5763 5762 5760 5758 5756 5754 5753 5751
5806 5805 5805 5804 5804 5805 5802 5801 5801 5800 5798 5797 5797 5796 5795 5793 5792 5791 5789 5787 5785 5783 5781 5780 5778 5777 5776 5775 5773 5772 5771 5769 5768 5767 5766 5764 5763 5761 5759 5758 5756 5754 5752 5750
5803 5803 5802 5803 5804 5802 5800 5799 5798 5797 5797 5796 5795 5794 5793 5792 5791 5789 5788 5786 5784 5782 5781 5779 5778 5777 5776 5774 5773 5772 5771 5770 5768 5767 5766 5764 5762 5760 5759 5757 5755 5753 5751 5749
5801 5800 5800 5800 5800 5799 5798 5797 5797 5796 5795 5794 5793 5792 5792 5791 5789 5788 5787 5785 5784 5782 5780 5779 5777 5776 5775 5774 5773 5772 5771 5769 5768 5766 5765 5763 5762 5760 5758 5756 5754 5752 5750 5748
5798 5798 5798 5797 5797 5796 5796 5795 5795 5794 5793 5792 5792 5791 5790 5789 5788 5787 5785 5784 5782 5781 5779 5778 5777 5776 5774 5773 5772 5771 5770 5769 5767 5766 5764 5763 5761 5759 5757 5755 5753 5750 5748 5746
5795 5795 5795 5795 5794 5794 5793 5792 5792 5791 5791 5790 5789 5788 5788 5787 5786 5785 5784 5782 5781 5779 5778 5777 5776 5775 5774 5773 5772 5770 5769 5768 5766 5765 5763 5762 5760 5758 5756 5754 5752 5749 5746 5744